Location: Newark
(22.3060°N, 114.2134°E)
Time: 07:46:24
(UTC+00:00)

Explorer 11/Cluster Stage 4 - Pass Details

Date: 04 August 2021
Orbit: 467 x 1256 km, 28.8° (Epoch: 24 September)

Event Time Altitude Azimuth Distance (km) Brightness Sun altitude
Rises 06:07:28 0° 285° (WNW) 4,168 10.6 66.4°
Reaches altitude 10° 06:10:36 10° 281° (W) 3,154 10.2 65.6°
Maximum altitude 06:18:08 48° 209° (SSW) 1,399 9.0 63.9°
Drops below altitude 10° 06:24:34 10° 137° (SE) 2,696 9.3 62.4°
Sets 06:27:05 0° 131° (SE) 3,522 9.7 61.9°
